$Date,$Time,DM0201B,DM0203B,DM0205B,DM0207B,DM0209B
10/07/98,00:00:01,71,161,-19,252,961
10/07/98,00:05:01,91,174,-19,273,961
10/07/98,00:10:01,78,175,-19,255,961
10/07/98,00:15:01,89,175,-19,273,961
10/07/98,00:20:01,65,175,-19,286,961
10/07/98,00:25:01,72,185,-19,271,961
10/07/98,00:30:01,73,171,-19,261,961
10/07/98,00:35:01,65,181,-19,275,961
10/07/98,00:40:01,73,181,-19,287,961
10/07/98,00:45:01,77,194,-19,282,961
10/07/98,00:50:01,66,181,-19,288,961
10/07/98,00:55:01,66,171,-19,292,961
10/07/98,01:00:01,57,177,-19,288,961
10/07/98,01:05:01,49,190,-19,299,961
10/07/98,01:10:01,46,190,-19,263,961
10/07/98,01:15:01,58,191,-19,246,961
10/07/98,01:20:01,48,203,-19,254,961
10/07/98,01:25:01,44,203,-19,263,961
10/07/98,01:30:01,35,186,-19,263,961
10/07/98,01:35:01,24,198,-19,258,961
10/07/98,01:40:01,24,188,-18,247,961
10/07/98,01:45:01,27,188,-18,246,961
10/07/98,01:50:01,31,188,-18,229,961
10/07/98,01:55:01,31,178,-18,261,961
10/07/98,02:00:01,32,178,-18,273,961
10/07/98,02:05:01,19,178,-18,270,961
10/07/98,02:10:01,7,168,-17,267,961
10/07/98,02:15:01,10,168,-16,243,961
10/07/98,02:20:01,14,298,-15,227,961
10/07/98,02:25:01,3,247,-13,241,961
10/07/98,02:30:01,2,289,-13,258,961
10/07/98,02:35:01,14,336,-13,262,961
10/07/98,02:40:01,10,339,-11,272,961
10/07/98,02:45:01,0,297,-11,270,961
10/07/98,02:50:01,25,315,-11,267,961
10/07/98,02:55:01,29,322,-12,267,961
10/07/98,03:00:01,37,335,-13,263,961
10/07/98,03:05:01,30,335,-12,259,961
10/07/98,03:10:01,41,324,-12,255,961
10/07/98,03:15:01,52,324,-12,251,961
10/07/98,03:20:01,52,323,-13,249,961
10/07/98,03:25:01,39,323,-13,246,961
10/07/98,03:30:01,35,333,-13,242,961
10/07/98,03:35:01,25,324,-12,238,961
10/07/98,03:40:01,16,311,-11,236,961
10/07/98,03:45:01,31,309,-11,232,961
10/07/98,03:50:01,41,358,-13,223,961
10/07/98,03:55:01,31,3,-12,198,961
10/07/98,04:00:01,62,318,-11,160,961
10/07/98,04:05:01,44,333,-11,115,961
10/07/98,04:10:01,44,329,-10,84,961
10/07/98,04:15:01,54,319,-10,70,961
10/07/98,04:20:01,44,331,-12,62,961
10/07/98,04:25:01,64,319,-11,62,961
10/07/98,04:30:01,63,319,-11,58,961
10/07/98,04:35:01,66,319,-11,56,961
10/07/98,04:40:01,66,319,-12,54,961
10/07/98,04:45:01,54,319,-12,52,961
10/07/98,04:50:01,61,319,-11,50,961
10/07/98,04:55:01,61,319,-11,48,961
10/07/98,05:00:01,35,337,-11,46,961
10/07/98,05:05:01,50,336,-10,46,961
10/07/98,05:10:01,43,335,-9,46,961
10/07/98,05:15:01,42,335,-8,44,961
10/07/98,05:20:01,23,352,-11,42,961
10/07/98,05:25:01,37,358,-11,42,961
10/07/98,05:30:01,31,333,-10,40,961
10/07/98,05:35:01,36,5,-11,40,961
10/07/98,05:40:01,24,348,-11,38,961
10/07/98,05:45:01,21,2,-11,38,961
10/07/98,05:50:01,21,2,-10,38,961
10/07/98,05:55:01,31,15,-10,38,961
10/07/98,06:00:01,31,15,-11,38,961
10/07/98,06:05:01,31,15,-11,36,961
10/07/98,06:10:01,31,3,-10,36,961
10/07/98,06:15:01,31,357,-10,42,961
10/07/98,06:20:01,43,355,-11,50,959
10/07/98,06:25:01,31,3,-13,43,959
10/07/98,06:30:01,24,1,-14,49,959
10/07/98,06:35:01,37,343,-15,44,959
10/07/98,06:40:01,23,354,-16,51,959
10/07/98,06:45:01,23,354,-16,55,959
10/07/98,06:50:01,16,14,-16,68,959
10/07/98,06:55:01,16,4,-16,68,959
10/07/98,07:00:01,27,4,-16,51,959
10/07/98,07:05:01,27,356,-17,78,959
10/07/98,07:10:01,37,356,-17,66,959
10/07/98,07:15:01,37,1,-18,38,959
10/07/98,07:20:01,39,1,-18,52,959
10/07/98,07:25:01,50,8,-18,35,959
10/07/98,07:30:01,63,8,-19,23,959
10/07/98,07:35:01,63,18,-19,41,959
10/07/98,07:40:01,63,18,-19,50,959
10/07/98,07:45:01,63,18,-20,57,959
10/07/98,07:50:01,63,18,-20,69,959
10/07/98,07:55:01,67,18,-19,63,959
10/07/98,08:00:01,67,18,-19,54,959
10/07/98,08:05:01,57,28,-19,49,959
10/07/98,08:10:01,68,18,-20,49,959
10/07/98,08:15:01,72,28,-20,49,959
10/07/98,08:20:01,54,16,-20,15,959
10/07/98,08:25:01,69,26,-20,13,959
10/07/98,08:30:01,77,26,-21,9,959
10/07/98,08:35:01,66,27,-21,9,959
10/07/98,08:40:01,59,31,-21,7,959
10/07/98,08:45:01,65,20,-21,7,959
10/07/98,08:50:01,53,20,-21,7,959
10/07/98,08:55:01,43,30,-21,5,959
10/07/98,09:00:01,43,30,-21,5,959
10/07/98,09:05:01,41,30,-21,3,959
10/07/98,09:10:01,28,30,-21,3,959
10/07/98,09:15:01,40,20,-21,3,959
10/07/98,09:20:01,53,10,-21,3,959
10/07/98,09:25:01,54,10,-22,3,959
10/07/98,09:30:01,54,10,-22,1,959
10/07/98,09:35:01,64,10,-22,1,959
10/07/98,09:40:01,53,10,-22,1,959
10/07/98,09:45:01,32,10,-22,1,959
10/07/98,09:50:01,34,10,-22,1,959
10/07/98,09:55:01,0,40,-22,1,959
10/07/98,10:00:01,0,67,-22,1,959
10/07/98,10:05:01,12,130,-22,1,959
10/07/98,10:10:01,12,141,-22,1,959
10/07/98,10:15:01,23,141,-22,1,959
10/07/98,10:20:01,34,141,-22,1,959
10/07/98,10:25:01,35,151,-22,1,959
10/07/98,10:30:01,13,151,-22,1,959
10/07/98,10:35:01,3,151,-22,1,959
10/07/98,10:40:01,3,125,-22,1,959
10/07/98,10:45:01,3,102,-22,1,959
10/07/98,10:50:01,43,170,-22,1,959
10/07/98,10:55:01,51,170,-22,1,959
10/07/98,11:00:01,42,170,-22,1,959
10/07/98,11:05:01,25,160,-22,1,959
10/07/98,11:10:01,15,119,-22,1,959
10/07/98,11:15:01,36,143,-22,1,959
10/07/98,11:20:01,30,143,-22,1,959
10/07/98,11:25:01,6,96,-22,1,959
10/07/98,11:30:01,25,68,-22,1,959
10/07/98,11:35:01,15,68,-22,1,959
10/07/98,11:40:01,15,68,-22,1,959
10/07/98,11:45:01,16,87,-22,1,959
10/07/98,11:50:01,16,99,-22,1,959
10/07/98,11:55:01,29,90,-22,1,959
10/07/98,12:00:01,44,125,-22,1,959
10/07/98,12:05:01,24,76,-22,1,959
10/07/98,12:10:01,18,87,-22,1,959
10/07/98,12:15:01,18,97,-22,1,959
10/07/98,12:20:01,15,74,-22,1,959
10/07/98,12:25:01,37,119,-22,1,959
10/07/98,12:30:01,25,71,-22,1,959
10/07/98,12:35:01,25,59,-22,1,959
10/07/98,12:40:01,25,59,-22,1,959
10/07/98,12:45:01,15,59,-22,1,959
10/07/98,12:50:01,10,61,-22,1,959
10/07/98,12:55:01,26,51,-22,1,959
10/07/98,13:00:01,24,51,-22,1,959
10/07/98,13:05:01,22,51,-22,1,959
10/07/98,13:10:01,22,41,-21,1,959
10/07/98,13:15:01,32,41,-21,1,959
10/07/98,13:20:01,32,31,-21,1,957
10/07/98,13:25:01,32,21,-21,1,957
10/07/98,13:30:01,32,21,-21,1,957
10/07/98,13:35:01,22,33,-21,1,957
10/07/98,13:40:01,32,44,-21,1,957
10/07/98,13:45:01,21,44,-21,1,957
10/07/98,13:50:01,21,88,-21,1,957
10/07/98,13:55:01,22,58,-21,1,957
10/07/98,14:00:01,12,58,-21,1,957
10/07/98,14:05:01,22,48,-21,1,957
10/07/98,14:10:01,22,38,-21,1,957
10/07/98,14:15:01,22,38,-21,1,957
10/07/98,14:20:01,12,23,-21,1,957
10/07/98,14:25:01,12,23,-21,1,957
10/07/98,14:30:01,12,23,-21,1,957
10/07/98,14:35:01,12,34,-21,1,957
10/07/98,14:40:01,12,34,-21,1,957
10/07/98,14:45:01,1,34,-21,1,957
10/07/98,14:50:01,1,34,-21,1,957
10/07/98,14:55:01,1,34,-21,1,957
10/07/98,15:00:01,1,34,-21,1,957
10/07/98,15:05:01,1,34,-21,1,957
10/07/98,15:10:01,1,34,-21,1,957
10/07/98,15:15:01,1,34,-21,1,957
10/07/98,15:20:01,1,34,-21,1,957
10/07/98,15:25:01,1,8,-21,1,957
10/07/98,15:30:01,1,8,-21,1,957
10/07/98,15:35:01,1,8,-21,1,957
10/07/98,15:40:01,1,8,-22,1,957
10/07/98,15:45:01,12,306,-22,1,957
10/07/98,15:50:01,11,306,-22,1,957
10/07/98,15:55:01,1,306,-22,1,957
10/07/98,16:00:01,11,306,-22,1,957
10/07/98,16:05:01,1,306,-22,1,957
10/07/98,16:10:01,1,306,-22,1,957
10/07/98,16:15:01,1,306,-21,1,957
10/07/98,16:20:01,1,306,-21,1,957
10/07/98,16:25:01,1,306,-21,1,957
10/07/98,16:30:01,1,273,-21,1,957
10/07/98,16:35:01,1,273,-21,1,957
10/07/98,16:40:01,1,273,-21,1,957
10/07/98,16:45:01,11,273,-21,1,957
10/07/98,16:50:01,11,273,-21,3,957
10/07/98,16:55:01,11,273,-21,3,957
10/07/98,17:00:01,11,273,-21,3,957
10/07/98,17:05:01,11,273,-21,3,957
10/07/98,17:10:01,11,250,-21,5,957
10/07/98,17:15:01,1,250,-21,5,957
10/07/98,17:20:01,1,250,-21,5,957
10/07/98,17:25:01,1,250,-21,7,957
10/07/98,17:30:01,24,250,-21,7,957
10/07/98,17:35:01,24,250,-21,9,957
10/07/98,17:40:01,14,250,-21,9,957
10/07/98,17:45:01,14,250,-21,11,957
10/07/98,17:50:01,25,260,-21,11,957
10/07/98,17:55:01,25,260,-21,13,957
10/07/98,18:00:01,35,270,-21,13,957
10/07/98,18:05:01,25,270,-21,15,957
10/07/98,18:10:01,25,270,-21,15,957
10/07/98,18:15:01,15,270,-21,17,957
10/07/98,18:20:01,15,270,-21,19,957
10/07/98,18:25:01,15,270,-21,21,957
10/07/98,18:30:01,26,270,-21,21,957
10/07/98,18:35:01,26,270,-21,23,957
10/07/98,18:40:01,26,270,-21,23,957
10/07/98,18:45:01,28,270,-21,25,957
10/07/98,18:50:01,28,270,-21,27,957
10/07/98,18:55:01,18,270,-21,29,957
10/07/98,19:00:01,18,226,-21,29,957
10/07/98,19:05:01,8,207,-21,31,957
10/07/98,19:10:01,8,207,-21,33,957
10/07/98,19:15:01,18,207,-21,35,957
10/07/98,19:20:01,18,207,-21,37,957
10/07/98,19:25:01,29,192,-21,37,957
10/07/98,19:30:01,19,192,-21,39,957
10/07/98,19:35:01,17,192,-21,41,957
10/07/98,19:40:01,46,180,-21,41,957
10/07/98,19:45:01,32,180,-21,43,957
10/07/98,19:50:01,46,169,-21,45,957
10/07/98,19:55:01,36,169,-21,47,957
10/07/98,20:00:01,25,169,-21,47,957
10/07/98,20:05:01,25,169,-21,51,955
10/07/98,20:10:01,14,169,-21,53,955
10/07/98,20:15:01,4,169,-21,55,955
10/07/98,20:20:01,4,169,-20,57,955
10/07/98,20:25:01,4,169,-20,59,955
10/07/98,20:30:01,4,258,-20,61,955
10/07/98,20:35:01,18,293,-20,61,955
10/07/98,20:40:01,28,316,-21,63,955
10/07/98,20:45:01,28,316,-21,65,955
10/07/98,20:50:01,28,326,-21,67,955
10/07/98,20:55:01,38,336,-21,69,955
10/07/98,21:00:01,38,336,-21,71,955
10/07/98,21:05:01,38,346,-21,73,955
10/07/98,21:10:01,23,346,-21,75,955
10/07/98,21:15:01,36,2,-21,77,955
10/07/98,21:20:01,36,357,-22,79,955
10/07/98,21:25:01,50,357,-22,83,955
10/07/98,21:30:01,51,357,-22,85,955
10/07/98,21:35:01,41,347,-22,87,955
10/07/98,21:40:01,41,347,-22,89,955
10/07/98,21:45:01,31,347,-22,89,955
10/07/98,21:50:01,31,347,-22,93,955
10/07/98,21:55:01,41,357,-22,95,955
10/07/98,22:00:01,53,8,-22,97,955
10/07/98,22:05:01,43,19,-22,97,955
10/07/98,22:10:01,53,19,-22,99,955
10/07/98,22:15:01,82,29,-22,101,955
10/07/98,22:20:01,72,19,-22,105,955
10/07/98,22:25:01,59,19,-22,105,955
10/07/98,22:30:01,72,9,-22,109,955
10/07/98,22:35:01,68,9,-22,111,955
10/07/98,22:40:01,68,1,-22,115,955
10/07/98,22:45:01,47,1,-22,117,955
10/07/98,22:50:01,59,11,-22,119,955
10/07/98,22:55:01,36,4,-21,123,955
10/07/98,23:00:01,56,352,-21,125,955
10/07/98,23:05:01,13,1,-21,127,955
10/07/98,23:10:01,35,359,-21,131,955
10/07/98,23:15:01,51,359,-21,131,955
10/07/98,23:20:01,41,359,-21,135,955
10/07/98,23:25:01,39,8,-21,137,955
10/07/98,23:30:01,39,8,-21,137,955
10/07/98,23:35:01,29,8,-21,137,955
10/07/98,23:40:01,39,8,-21,139,953
10/07/98,23:45:01,50,358,-21,139,953
10/07/98,23:50:01,37,358,-21,143,953
10/07/98,23:55:01,37,358,-21,143,953
10/08/98,00:00:01,37,358,-21,147,953
